Regional Weather Roundup
Issued by NWS Kansas City/Pleasant Hill, MO

Home | Current Version | Previous Version | Graphics & Text | Print | Product List | Glossary Off
Versions: 1 2 3 4 5 6 7 8 9 10 11 12 13 14 15 16 17 18 19 20 21 22 23 24 25 26 27

000
ASUS43 KEAX 250510
RWREAX

WEATHER ROUNDUP FOR EASTERN KANSAS AND NORTHWEST MISSOURI
NATIONAL WEATHER SERVICE KANSAS CITY/PLEASANT HILL MO
1200 AM CDT THU AUG 25 2016

KSZ040-057-103>105-MOZ028-029-037-043-250600-
...KANSAS CITY METROPOLITAN AREA...

CITY           SKY/WX    TMP DP  RH WIND       PRES   REMARKS
K.C. INTL      LGT RAIN  70  68  93 S5        30.03F
K.C. DOWNTOWN  LGT RAIN  73  70  90 SE3       30.02F
LEES SUMMIT    NOT AVBL
OLATHE - IXD   CLOUDY    70  70 100 E5        30.03F
OLATHE - OJC   CLOUDY    69  69 100 NE3       30.03F

$$

MOZ001>008-011>017-020>025-030>033-038>040-044>046-053-054-250600-
...NORTHERN AND CENTRAL MISSOURI...

CITY           SKY/WX    TMP DP  RH WIND       PRES   REMARKS
ST. JOSEPH     CLOUDY    71  69  93 CALM      30.03R
MOSBY          CLOUDY    72  70  94 CALM      30.04R
WHITEMAN AFB   CLOUDY    68  68 100 N3        30.07F
CLINTON        CLOUDY    75  70  83 NW5       30.07R
SEDALIA        LGT RAIN  72  68  87 NW10      30.10R
WARSAW         NOT AVBL
CHILLICOTHE      N/A     73  72  96 S5        30.04S
KIRKSVILLE     LGT RAIN  72  70  93 SE9       30.04F FOG

$$

MOZ041-047>049-056>058-063>065-088>090-097-250600-
...EASTERN AND SOUTHERN MISSOURI...

CITY           SKY/WX    TMP DP  RH WIND       PRES   REMARKS
ST. LOUIS INTL PTCLDY    85  73  67 SW13      30.02R HX  91
SPIRIT OF STL  CLEAR     82  75  79 SW8       30.00R
COLUMBIA       CLOUDY    80  74  81 SW10      30.05R
JEFFERSON CITY PTCLDY    82  74  76 VRB6      30.02R
ROLLA          CLEAR     77  72  84 SW9       30.06R
OSAGE BEACH    CLEAR     80  72  76 S9        30.06R
BRANSON        CLEAR     75  68  78 S6        30.10F
JOPLIN         CLEAR     81  67  62 S15       30.05R

$$

IAZ060-094-KSZ022-034>040-054-083-096-NEZ052-066-093-250600-
...KANSAS...SOUTHEAST NEBRASKA AND IOWA...

CITY           SKY/WX    TMP DP  RH WIND       PRES   REMARKS
TOPEKA         CLOUDY    71  69  93 CALM      30.02F
EMPORIA        CLOUDY    72  71  97 CALM      30.04R
WICHITA        CLOUDY    74  69  85 SE9       30.03R
LINCOLN        CLEAR     62  60  93 CALM      30.08R
FALLS CITY     CLOUDY    69  68  96 CALM      30.04R
LAMONI         CLOUDY    68  68 100 CALM      30.02S
DES MOINES     CLOUDY    71  69  93 NW6       30.01R

$$





USA.gov is the U.S. government's official web portal to all federal, state and local government web resources and services.